Regional Weather Roundup
Issued by NWS Northern Indiana

Home | Current Version | Previous Version | Text Only | Print | Product List | Glossary Off
Versions: 1 2 3 4 5 6 7 8 9 10 11 12 13 14 15 16 17 18 19 20 21 22 23 24 25 26 27 28 29 30 31 32 33 34 35 36 37 38 39 40 41 42 43 44 45 46 47 48 49 50

000
ASUS43 KIWX 230000
RWRIWX

KIWX WEATHER ROUNDUP
NATIONAL WEATHER SERVICE NORTHERN INDIANA
800 PM EDT TUE APR 22 2014

NOTE: "FAIR" INDICATES FEW OR NO CLOUDS BELOW 12,000 FEET WITH NO
SIGNIFICANT WEATHER AND/OR OBSTRUCTIONS TO VISIBILITY.

* THESE STATIONS ARE NOT UNDER NWS QUALITY CONTROL. THEY ALSO MAY NOT
  REPORT WEATHER SUCH AS PRECIPITATION OR FOG.

INZ001>027-230100-
NORTHERN INDIANA

CITY           SKY/WX    TMP DP  RH WIND       PRES   REMARKS
GARY*          CLEAR     45  32  61 E13       30.02R
VALPARAISO     CLEAR     45  29  53 N8        30.00R
6HR MIN TEMP:  45; 6HR MAX TEMP:  52;

SOUTH BEND     CLEAR     46  29  51 N12       29.99R
6HR MIN TEMP:  46; 6HR MAX TEMP:  50;

ELKHART*       CLEAR     46  28  49 NW8G16    29.97R
GOSHEN         CLEAR     48  31  51 N12       29.96R
6HR MIN TEMP:  48; 6HR MAX TEMP:  52;

ANGOLA*        CLEAR     46  30  53 N12       29.93R
FORT WAYNE     PTCLDY    49  30  48 NW15G26   29.95R
6HR MIN TEMP:  49; 6HR MAX TEMP:  56;

PERU/GRISSOM   CLEAR     52  33  49 N12       29.95S
6HR MIN TEMP:  52; 6HR MAX TEMP:  55;


$$
INZ028>050-230100-
CENTRAL INDIANA

CITY           SKY/WX    TMP DP  RH WIND       PRES   REMARKS
LAFAYETTE      CLEAR     56  33  42 NW9       29.94S
6HR MIN TEMP:  55; 6HR MAX TEMP:  59;

KOKOMO*        CLEAR     52  30  43 N13       29.96R
6HR MIN TEMP:  52; 6HR MAX TEMP:  55;

MUNCIE*        CLEAR     50  30  46 N17G26    29.95R
6HR MIN TEMP:  50; 6HR MAX TEMP:  58;

INDIANAPOLIS   PTCLDY    53  32  44 N12       29.93R
6HR MIN TEMP:  53; 6HR MAX TEMP:  60;


$$
MIZ043>046-050>051-056>058-064>065-071>073-077>080-230100-
SOUTHWEST LOWER MICHIGAN

CITY           SKY/WX    TMP DP  RH WIND       PRES   REMARKS
BATTLE CREEK   CLOUDY    46  28  49 NW13G26   29.94S
6HR MIN TEMP:  46; 6HR MAX TEMP:  53;

BENTON HARBOR  CLEAR     41  30  65 N10G18    29.99S
6HR MIN TEMP:  41; 6HR MAX TEMP:  45;

COLDWATER*     CLEAR     44  28  53 N15G24    29.93S
6HR MIN TEMP:  44; 6HR MAX TEMP:  52;

HILLSDALE*     MOCLDY    46  29  53 NW22G32   29.91R
HOLLAND        CLEAR     48  26  42 N8G21     29.98R
6HR MIN TEMP:  47; 6HR MAX TEMP:  51;

GRAND RAPIDS   MOCLDY    45  27  49 NW21G29   29.96R
6HR MIN TEMP:  45; 6HR MAX TEMP:  50;

KALAMAZOO      PTCLDY    46  27  47 NW20G28   29.95R
6HR MIN TEMP:  46; 6HR MAX TEMP:  53;

STURGIS*       PTCLDY    45  28  53 N14       29.94R
THREE RIVERS*  CLOUDY    47  28  47 N9G17     29.95S

$$
OHZ001>008-015>018-024>025-230100-
NORTHWEST OHIO

CITY           SKY/WX    TMP DP  RH WIND       PRES   REMARKS
DEFIANCE       CLEAR     50  31  48 NW22G28   29.91R
6HR MIN TEMP:  50; 6HR MAX TEMP:  59;

FINDLAY        MOCLDY    52  33  48 NW15G24   29.86R
6HR MIN TEMP:  52; 6HR MAX TEMP:  62;

TOLEDO EXPRESS CLOUDY    49  31  49 NW17G29   29.88R
6HR MIN TEMP:  49; 6HR MAX TEMP:  59;

TOLEDO METCALF CLOUDY    50  32  50 NW23G32   29.88R
6HR MIN TEMP:  50; 6HR MAX TEMP:  61;

LIMA           PTCLDY    51  33  50 NW23G30   29.88R
6HR MIN TEMP:  51; 6HR MAX TEMP:  61;


$$
&&



USA.gov is the U.S. government's official web portal to all federal, state and local government web resources and services.